| time (UTC) | temp F | wind direction | speed MPH | gust MPH | rain 1hr in | rain 24hr in | rain mn in | humidity % | barometer mb |
| 20260506113355 | 77 | 103 | 3.0 | 5.0 | 0.00 | 0.00 | 0.00 | 97 | 1006.8 |
| 20260506113116 | 77 | 103 | 2.0 | 5.0 | 0.00 | 0.00 | 0.00 | 97 | 1006.8 |
| 20260506112345 | 77 | 103 | 2.0 | 6.0 | 0.00 | 0.00 | 0.00 | 97 | 1006.8 |
| 20260506111841 | 77 | 103 | 2.0 | 6.0 | 0.00 | 0.00 | 0.00 | 97 | 1006.8 |
| 20260506111316 | 77 | 103 | 3.0 | 7.0 | 0.00 | 0.00 | 0.00 | 97 | 1006.8 |
| 20260506110806 | 77 | 103 | 3.0 | 7.0 | 0.00 | 0.00 | 0.00 | 97 | 1006.7 |
| 20260506110522 | 77 | 104 | 3.0 | 6.0 | 0.00 | 0.00 | 0.00 | 97 | 1006.7 |
| 20260506105727 | 77 | 103 | 3.0 | 6.0 | 0.00 | 0.00 | 0.00 | 97 | 1006.7 |
| 20260506105202 | 77 | 103 | 4.0 | 8.0 | 0.00 | 0.00 | 0.00 | 97 | 1006.5 |
| 20260506104657 | 77 | 103 | 5.0 | 9.0 | 0.00 | 0.00 | 0.00 | 97 | 1006.5 |
| 20260506104406 | 77 | 103 | 4.0 | 9.0 | 0.00 | 0.00 | 0.00 | 97 | 1006.5 |
| 20260506103637 | 77 | 101 | 4.0 | 7.0 | 0.00 | 0.00 | 0.00 | 97 | 1006.4 |
| 20260506103336 | 77 | 101 | 4.0 | 7.0 | 0.00 | 0.00 | 0.00 | 97 | 1006.5 |
| 20260506102834 | 77 | 101 | 4.0 | 7.0 | 0.00 | 0.00 | 0.00 | 97 | 1006.4 |
| 20260506102053 | 77 | 101 | 4.0 | 7.0 | 0.00 | 0.00 | 0.00 | 97 | 1006.5 |
| 20260506101553 | 77 | 101 | 3.0 | 7.0 | 0.00 | 0.00 | 0.00 | 97 | 1006.5 |
| 20260506101056 | 77 | 101 | 3.0 | 7.0 | 0.00 | 0.00 | 0.00 | 97 | 1006.4 |
| 20260506100549 | 77 | 101 | 4.0 | 8.0 | 0.00 | 0.00 | 0.00 | 97 | 1006.4 |
| 20260506100024 | 77 | 101 | 4.0 | 8.0 | 0.00 | 0.00 | 0.00 | 96 | 1006.3 |
| 20260506095737 | 77 | 101 | 4.0 | 6.0 | 0.00 | 0.00 | 0.00 | 96 | 1006.3 |
| 20260506094953 | 77 | 100 | 3.0 | 6.0 | 0.00 | 0.00 | 0.00 | 96 | 1006.4 |
| 20260506094449 | 77 | 100 | 3.0 | 6.0 | 0.00 | 0.00 | 0.00 | 96 | 1006.4 |
| 20260506094150 | 77 | 100 | 3.0 | 6.0 | 0.00 | 0.00 | 0.00 | 96 | 1006.4 |
| 20260506093416 | 78 | 100 | 3.0 | 6.0 | 0.00 | 0.00 | 0.00 | 96 | 1006.2 |
| 20260506092854 | 77 | 100 | 3.0 | 6.0 | 0.00 | 0.00 | 0.00 | 96 | 1006.3 |
| 20260506092344 | 77 | 100 | 4.0 | 7.0 | 0.00 | 0.00 | 0.00 | 96 | 1006.2 |
| 20260506091828 | 77 | 100 | 3.0 | 7.0 | 0.00 | 0.00 | 0.00 | 96 | 1006.2 |
| 20260506091324 | 77 | 100 | 2.0 | 6.0 | 0.00 | 0.00 | 0.00 | 96 | 1006.3 |
| 20260506091013 | 77 | 100 | 2.0 | 6.0 | 0.00 | 0.00 | 0.00 | 96 | 1006.4 |
| 20260506090224 | 77 | 100 | 3.0 | 7.0 | 0.00 | 0.00 | 0.00 | 96 | 1006.3 |
| 20260506085721 | 77 | 100 | 3.0 | 7.0 | 0.00 | 0.00 | 0.00 | 96 | 1006.2 |
| 20260506085207 | 77 | 100 | 3.0 | 5.0 | 0.00 | 0.00 | 0.00 | 96 | 1006.2 |
| 20260506084633 | 77 | 100 | 3.0 | 7.0 | 0.00 | 0.00 | 0.00 | 96 | 1006.3 |
| 20260506084102 | 77 | 100 | 3.0 | 7.0 | 0.00 | 0.00 | 0.00 | 96 | 1006.3 |
| 20260506083556 | 77 | 100 | 3.0 | 6.0 | 0.00 | 0.00 | 0.00 | 96 | 1006.4 |
| 20260506083051 | 77 | 100 | 4.0 | 8.0 | 0.00 | 0.00 | 0.00 | 96 | 1006.3 |
| 20260506082016 | 78 | 101 | 5.0 | 7.0 | 0.00 | 0.00 | 0.00 | 96 | 1006.1 |
| 20260506081455 | 78 | 101 | 5.0 | 9.0 | 0.00 | 0.00 | 0.00 | 96 | 1006.2 |
| 20260506080953 | 78 | 101 | 4.0 | 9.0 | 0.00 | 0.00 | 0.00 | 96 | 1006.2 |
| 20260506080441 | 78 | 101 | 4.0 | 9.0 | 0.00 | 0.00 | 0.00 | 96 | 1006.4 |
| 20260506073356 | 78 | 131 | 5.0 | 8.0 | 0.00 | 0.00 | 0.00 | 95 | 1006.7 |
| 20260506072854 | 78 | 140 | 5.0 | 10.0 | 0.00 | 0.00 | 0.00 | 95 | 1006.8 |
| 20260506072351 | 78 | 134 | 5.0 | 10.0 | 0.00 | 0.00 | 0.00 | 95 | 1006.8 |
| 20260506071847 | 78 | 150 | 5.0 | 10.0 | 0.00 | 0.00 | 0.00 | 95 | 1006.9 |
| 20260506071340 | 78 | 114 | 5.0 | 10.0 | 0.00 | 0.00 | 0.00 | 95 | 1007.1 |
| 20260506070837 | 78 | 114 | 6.0 | 10.0 | 0.00 | 0.00 | 0.00 | 95 | 1007.1 |
| 20260506070309 | 78 | 114 | 6.0 | 11.0 | 0.00 | 0.00 | 0.00 | 95 | 1007.1 |
| 20260506062040 | 78 | 158 | 5.0 | 9.0 | 0.00 | 0.00 | 0.00 | 94 | 1007.5 |
| 20260506061508 | 78 | 154 | 5.0 | 12.0 | 0.00 | 0.00 | 0.00 | 94 | 1007.6 |
| 20260506060443 | 78 | 151 | 7.0 | 15.0 | 0.00 | 0.00 | 0.00 | 94 | 1007.6 |
| 20260506060200 | 78 | 159 | 7.0 | 14.0 | 0.00 | 0.00 | 0.00 | 94 | 1007.6 |
| 20260506051319 | 79 | 140 | 8.0 | 14.0 | 0.00 | 0.00 | 0.00 | 93 | 1007.2 |
| 20260506050754 | 79 | 162 | 8.0 | 14.0 | 0.00 | 0.00 | 0.00 | 93 | 1007.0 |
| 20260506050233 | 79 | 145 | 8.0 | 14.0 | 0.00 | 0.00 | 0.00 | 93 | 1007.0 |
| 20260506044639 | 79 | 135 | 8.0 | 14.0 | 0.00 | 0.00 | 0.00 | 93 | 1007.0 |
| 20260506044108 | 78 | 149 | 7.0 | 14.0 | 0.00 | 0.00 | 0.00 | 94 | 1007.0 |
| 20260506043552 | 78 | 124 | 7.0 | 11.0 | 0.00 | 0.00 | 0.00 | 94 | 1007.1 |
| 20260506043049 | 78 | 140 | 7.0 | 13.0 | 0.00 | 0.00 | 0.00 | 94 | 1006.9 |
| 20260506042551 | 78 | 130 | 7.0 | 16.0 | 0.00 | 0.00 | 0.00 | 94 | 1006.7 |
| 20260506042027 | 78 | 130 | 7.0 | 16.0 | 0.00 | 0.00 | 0.00 | 94 | 1006.9 |
| 20260506041526 | 78 | 172 | 7.0 | 13.0 | 0.00 | 0.00 | 0.00 | 94 | 1006.8 |
| 20260506041017 | 78 | 132 | 7.0 | 14.0 | 0.00 | 0.00 | 0.00 | 94 | 1006.8 |
| 20260506040510 | 78 | 128 | 8.0 | 14.0 | 0.00 | 0.00 | 0.00 | 94 | 1006.8 |
| 20260506035946 | 78 | 157 | 8.0 | 14.0 | 0.00 | 0.00 | 0.00 | 94 | 1006.8 |
| 20260506035441 | 78 | 136 | 8.0 | 12.0 | 0.00 | 0.00 | 0.00 | 94 | 1006.7 |
| 20260506035208 | 78 | 136 | 7.0 | 12.0 | 0.00 | 0.00 | 0.00 | 94 | 1006.6 |
| 20260506034410 | 78 | 133 | 7.0 | 15.0 | 0.00 | 0.00 | 0.00 | 94 | 1006.6 |
| 20260506033903 | 78 | 127 | 8.0 | 15.0 | 0.00 | 0.00 | 0.00 | 94 | 1006.7 |
| 20260506033401 | 78 | 107 | 7.0 | 12.0 | 0.00 | 0.00 | 0.00 | 94 | 1006.6 |
| 20260506032827 | 78 | 115 | 7.0 | 12.0 | 0.00 | 0.00 | 0.00 | 94 | 1006.6 |
| 20260506032301 | 78 | 107 | 6.0 | 11.0 | 0.00 | 0.00 | 0.00 | 94 | 1006.6 |
| 20260506031742 | 78 | 171 | 6.0 | 11.0 | 0.00 | 0.00 | 0.00 | 94 | 1006.7 |
| 20260506031238 | 78 | 115 | 5.0 | 10.0 | 0.00 | 0.00 | 0.00 | 94 | 1006.7 |
| 20260506030731 | 78 | 132 | 6.0 | 10.0 | 0.00 | 0.00 | 0.00 | 94 | 1006.7 |
| 20260506030208 | 78 | 121 | 6.0 | 10.0 | 0.00 | 0.00 | 0.00 | 94 | 1006.6 |
| 20260506025704 | 78 | 138 | 6.0 | 11.0 | 0.00 | 0.00 | 0.00 | 94 | 1006.5 |
| 20260506025207 | 78 | 123 | 6.0 | 11.0 | 0.00 | 0.00 | 0.00 | 94 | 1006.5 |
| 20260506024647 | 78 | 132 | 6.0 | 11.0 | 0.00 | 0.00 | 0.00 | 94 | 1006.5 |
| 20260506024402 | 78 | 127 | 5.0 | 10.0 | 0.00 | 0.00 | 0.00 | 94 | 1006.3 |
| 20260506023646 | 78 | 146 | 5.0 | 10.0 | 0.00 | 0.00 | 0.00 | 94 | 1006.3 |
| 20260506023123 | 78 | 118 | 5.0 | 11.0 | 0.00 | 0.00 | 0.00 | 94 | 1006.2 |
| 20260506022552 | 78 | 128 | 5.0 | 11.0 | 0.00 | 0.00 | 0.00 | 94 | 1006.1 |
| 20260506022032 | 78 | 119 | 5.0 | 12.0 | 0.00 | 0.00 | 0.00 | 93 | 1006.1 |
| 20260506021530 | 78 | 122 | 5.0 | 12.0 | 0.00 | 0.00 | 0.00 | 93 | 1006.1 |
| 20260506021256 | 78 | 153 | 5.0 | 9.0 | 0.00 | 0.00 | 0.00 | 93 | 1006.1 |
| 20260506020501 | 79 | 148 | 5.0 | 12.0 | 0.00 | 0.00 | 0.00 | 93 | 1006.0 |
| 20260506015931 | 79 | 167 | 5.0 | 12.0 | 0.00 | 0.00 | 0.00 | 93 | 1005.9 |
| 20260506015405 | 79 | 149 | 6.0 | 12.0 | 0.00 | 0.00 | 0.00 | 93 | 1005.8 |
| 20260506014901 | 79 | 161 | 6.0 | 12.0 | 0.00 | 0.00 | 0.00 | 93 | 1005.6 |
| 20260506014359 | 79 | 160 | 6.0 | 11.0 | 0.00 | 0.00 | 0.00 | 93 | 1005.6 |
| 20260506013857 | 79 | 121 | 6.0 | 12.0 | 0.00 | 0.00 | 0.00 | 93 | 1005.5 |
| 20260506013345 | 79 | 163 | 8.0 | 15.0 | 0.00 | 0.00 | 0.00 | 93 | 1005.5 |
| 20260506013054 | 79 | 169 | 7.0 | 15.0 | 0.00 | 0.00 | 0.00 | 93 | 1005.2 |
| 20260506012340 | 79 | 117 | 7.0 | 11.0 | 0.00 | 0.00 | 0.00 | 93 | 1005.1 |
| 20260506011813 | 79 | 132 | 7.0 | 16.0 | 0.00 | 0.00 | 0.00 | 93 | 1005.1 |
| 20260506011314 | 79 | 115 | 7.0 | 14.0 | 0.00 | 0.00 | 0.00 | 92 | 1004.9 |
| 20260506010802 | 79 | 113 | 7.0 | 12.0 | 0.00 | 0.00 | 0.00 | 92 | 1005.0 |
| 20260506010305 | 79 | 171 | 6.0 | 11.0 | 0.00 | 0.00 | 0.00 | 92 | 1005.0 |
| 20260506005739 | 79 | 128 | 7.0 | 13.0 | 0.00 | 0.00 | 0.00 | 92 | 1005.0 |
| 20260506005211 | 80 | 125 | 7.0 | 13.0 | 0.00 | 0.00 | 0.00 | 91 | 1004.9 |
| 20260506004702 | 80 | 152 | 7.0 | 12.0 | 0.00 | 0.00 | 0.00 | 91 | 1004.9 |
| 20260506004421 | 80 | 153 | 7.0 | 16.0 | 0.00 | 0.00 | 0.00 | 91 | 1004.9 |
| 20260506003629 | 80 | 148 | 8.0 | 15.0 | 0.00 | 0.00 | 0.00 | 91 | 1004.7 |
| 20260506003101 | 80 | 134 | 9.0 | 15.0 | 0.00 | 0.00 | 0.00 | 91 | 1004.7 |
| 20260506002600 | 80 | 166 | 8.0 | 15.0 | 0.00 | 0.00 | 0.00 | 91 | 1004.8 |
| 20260506002101 | 80 | 114 | 7.0 | 14.0 | 0.00 | 0.00 | 0.00 | 91 | 1004.8 |
| 20260506001557 | 80 | 119 | 7.0 | 14.0 | 0.00 | 0.00 | 0.00 | 90 | 1004.8 |
| 20260506001054 | 80 | 103 | 7.0 | 13.0 | 0.00 | 0.00 | 0.00 | 90 | 1004.8 |
| 20260506000550 | 80 | 136 | 8.0 | 15.0 | 0.00 | 0.00 | 0.00 | 90 | 1004.7 |
| 20260506000045 | 80 | 155 | 9.0 | 15.0 | 0.00 | 0.00 | 0.00 | 89 | 1004.7 |
| 20260505235535 | 81 | 121 | 10.0 | 20.0 | 0.00 | 0.00 | 0.00 | 89 | 1004.7 |
| 20260505235011 | 81 | 145 | 11.0 | 20.0 | 0.00 | 0.00 | 0.00 | 88 | 1004.8 |
| 20260505234500 | 81 | 144 | 10.0 | 16.0 | 0.00 | 0.00 | 0.00 | 89 | 1004.7 |
| 20260505234158 | 81 | 153 | 9.0 | 16.0 | 0.00 | 0.00 | 0.00 | 88 | 1004.5 |
| 20260505233405 | 81 | 122 | 8.0 | 16.0 | 0.00 | 0.00 | 0.00 | 88 | 1004.6 |
| 20260505232845 | 81 | 167 | 9.0 | 14.0 | 0.00 | 0.00 | 0.00 | 88 | 1004.7 |
| 20260505232346 | 81 | 170 | 11.0 | 23.0 | 0.00 | 0.00 | 0.00 | 88 | 1004.8 |
| 20260505231843 | 81 | 157 | 11.0 | 23.0 | 0.00 | 0.00 | 0.00 | 88 | 1004.8 |
| 20260505231345 | 81 | 123 | 11.0 | 19.0 | 0.00 | 0.00 | 0.00 | 88 | 1004.9 |
| 20260505230821 | 81 | 108 | 10.0 | 19.0 | 0.00 | 0.00 | 0.00 | 88 | 1004.8 |
| 20260505230251 | 81 | 148 | 11.0 | 21.0 | 0.00 | 0.00 | 0.00 | 88 | 1004.7 |
| 20260505225719 | 81 | 130 | 11.0 | 21.0 | 0.00 | 0.00 | 0.00 | 87 | 1004.8 |
| 20260505225215 | 81 | 117 | 10.0 | 18.0 | 0.00 | 0.00 | 0.00 | 87 | 1004.7 |
| 20260505224934 | 81 | 132 | 10.0 | 18.0 | 0.00 | 0.00 | 0.00 | 87 | 1004.8 |
| 20260505224437 | 81 | 132 | 11.0 | 18.0 | 0.00 | 0.00 | 0.00 | 87 | 1004.9 |
| 20260505223650 | 81 | 133 | 10.0 | 18.0 | 0.00 | 0.00 | 0.00 | 87 | 1004.9 |
| 20260505223143 | 81 | 157 | 10.0 | 17.0 | 0.00 | 0.00 | 0.00 | 87 | 1005.0 |
| 20260505222642 | 81 | 148 | 11.0 | 17.0 | 0.00 | 0.00 | 0.00 | 87 | 1005.1 |
| 20260505222135 | 81 | 142 | 10.0 | 21.0 | 0.00 | 0.00 | 0.00 | 87 | 1005.1 |
| 20260505221629 | 81 | 132 | 10.0 | 21.0 | 0.00 | 0.00 | 0.00 | 86 | 1005.1 |
| 20260505221101 | 82 | 147 | 11.0 | 19.0 | 0.00 | 0.00 | 0.00 | 86 | 1005.2 |
| 20260505220531 | 82 | 126 | 10.0 | 19.0 | 0.00 | 0.00 | 0.00 | 86 | 1005.1 |
| 20260505220030 | 82 | 123 | 10.0 | 20.0 | 0.00 | 0.00 | 0.00 | 86 | 1005.1 |
| 20260505215503 | 82 | 171 | 11.0 | 22.0 | 0.00 | 0.00 | 0.00 | 86 | 1005.2 |
| 20260505215005 | 81 | 144 | 11.0 | 22.0 | 0.00 | 0.00 | 0.00 | 86 | 1005.3 |
| 20260505214437 | 82 | 153 | 10.0 | 21.0 | 0.00 | 0.00 | 0.00 | 85 | 1005.4 |
| 20260505213937 | 82 | 122 | 10.0 | 19.0 | 0.00 | 0.00 | 0.00 | 85 | 1005.5 |
| 20260505213648 | 82 | 122 | 9.0 | 19.0 | 0.00 | 0.00 | 0.00 | 85 | 1005.4 |
| 20260505212901 | 82 | 129 | 10.0 | 23.0 | 0.00 | 0.00 | 0.00 | 85 | 1005.5 |
| 20260505212334 | 82 | 135 | 11.0 | 23.0 | 0.00 | 0.00 | 0.00 | 84 | 1005.6 |
| 20260505211835 | 82 | 134 | 11.0 | 18.0 | 0.00 | 0.00 | 0.00 | 84 | 1005.6 |
| 20260505211336 | 82 | 143 | 10.0 | 18.0 | 0.00 | 0.00 | 0.00 | 84 | 1005.6 |
| 20260505210839 | 82 | 153 | 10.0 | 17.0 | 0.00 | 0.00 | 0.00 | 83 | 1005.7 |
| 20260505210335 | 82 | 107 | 9.0 | 16.0 | 0.00 | 0.00 | 0.00 | 84 | 1005.8 |
| 20260505205825 | 83 | 179 | 8.0 | 16.0 | 0.00 | 0.00 | 0.00 | 83 | 1005.8 |
| 20260505205258 | 83 | 128 | 9.0 | 13.0 | 0.00 | 0.00 | 0.00 | 84 | 1005.8 |
| 20260505204739 | 82 | 112 | 9.0 | 17.0 | 0.00 | 0.00 | 0.00 | 85 | 1005.9 |
| 20260505204211 | 82 | 165 | 9.0 | 15.0 | 0.00 | 0.00 | 0.00 | 85 | 1006.0 |
| 20260505203917 | 82 | 115 | 9.0 | 15.0 | 0.00 | 0.00 | 0.00 | 85 | 1006.1 |
| 20260505203424 | 82 | 103 | 8.0 | 16.0 | 0.00 | 0.00 | 0.00 | 85 | 1006.3 |
| 20260505202629 | 82 | 148 | 8.0 | 16.0 | 0.00 | 0.00 | 0.00 | 85 | 1006.4 |
| 20260505202059 | 82 | 146 | 8.0 | 16.0 | 0.00 | 0.00 | 0.00 | 85 | 1006.3 |
| 20260505201026 | 82 | 158 | 8.0 | 15.0 | 0.00 | 0.00 | 0.00 | 86 | 1006.4 |
| 20260505200521 | 82 | 134 | 8.0 | 15.0 | 0.00 | 0.00 | 0.00 | 86 | 1006.4 |
| 20260505200009 | 82 | 190 | 9.0 | 15.0 | 0.00 | 0.00 | 0.00 | 86 | 1006.5 |
| 20260505195442 | 82 | 193 | 9.0 | 16.0 | 0.00 | 0.00 | 0.00 | 86 | 1006.7 |
| 20260505194909 | 82 | 154 | 9.0 | 16.0 | 0.00 | 0.00 | 0.00 | 86 | 1006.6 |
| 20260505194341 | 82 | 163 | 9.0 | 15.0 | 0.00 | 0.00 | 0.00 | 86 | 1006.8 |
| 20260505194057 | 81 | 159 | 8.0 | 15.0 | 0.00 | 0.00 | 0.00 | 87 | 1006.8 |
| 20260505193321 | 81 | 173 | 8.0 | 15.0 | 0.00 | 0.00 | 0.00 | 87 | 1006.8 |
| 20260505192250 | 81 | 175 | 9.0 | 22.0 | 0.00 | 0.00 | 0.00 | 87 | 1006.8 |
| 20260505192012 | 81 | 148 | 9.0 | 16.0 | 0.00 | 0.00 | 0.00 | 87 | 1006.9 |
| 20260505190710 | 82 | 189 | 9.0 | 18.0 | 0.00 | 0.00 | 0.00 | 85 | 1006.9 |
| 20260505190207 | 82 | 178 | 8.0 | 15.0 | 0.00 | 0.00 | 0.00 | 86 | 1007.0 |
| 20260505185637 | 82 | 159 | 8.0 | 15.0 | 0.00 | 0.00 | 0.00 | 86 | 1007.0 |
| 20260505185113 | 82 | 207 | 10.0 | 18.0 | 0.00 | 0.00 | 0.00 | 86 | 1007.0 |
| 20260505184544 | 82 | 171 | 10.0 | 18.0 | 0.00 | 0.00 | 0.00 | 85 | 1007.0 |
| 20260505184041 | 82 | 167 | 9.0 | 18.0 | 0.00 | 0.00 | 0.00 | 85 | 1007.1 |
| 20260505183537 | 82 | 150 | 9.0 | 18.0 | 0.00 | 0.00 | 0.00 | 85 | 1007.1 |
| 20260505183012 | 82 | 124 | 9.0 | 16.0 | 0.00 | 0.00 | 0.00 | 86 | 1007.2 |
| 20260505182505 | 81 | 182 | 8.0 | 15.0 | 0.00 | 0.00 | 0.00 | 86 | 1007.2 |
| 20260505182001 | 81 | 189 | 9.0 | 18.0 | 0.00 | 0.00 | 0.00 | 86 | 1007.3 |
| 20260505181430 | 81 | 141 | 9.0 | 18.0 | 0.00 | 0.00 | 0.00 | 86 | 1007.2 |
| 20260505180931 | 82 | 145 | 9.0 | 16.0 | 0.00 | 0.00 | 0.00 | 86 | 1007.4 |
| 20260505180428 | 82 | 172 | 9.0 | 16.0 | 0.00 | 0.00 | 0.00 | 86 | 1007.3 |
| 20260505180142 | 81 | 197 | 8.0 | 16.0 | 0.00 | 0.00 | 0.00 | 87 | 1007.4 |
| 20260505175641 | 81 | 175 | 9.0 | 16.0 | 0.00 | 0.00 | 0.00 | 87 | 1007.4 |
| 20260505174405 | 81 | 190 | 9.0 | 17.0 | 0.00 | 0.00 | 0.00 | 87 | 1007.5 |
| 20260505173859 | 80 | 183 | 8.0 | 17.0 | 0.00 | 0.00 | 0.00 | 87 | 1007.5 |
| 20260505173348 | 80 | 196 | 8.0 | 14.0 | 0.00 | 0.00 | 0.00 | 88 | 1007.6 |
| 20260505173035 | 80 | 169 | 9.0 | 14.0 | 0.00 | 0.00 | 0.00 | 88 | 1007.6 |
| 20260505172250 | 80 | 182 | 10.0 | 16.0 | 0.00 | 0.00 | 0.00 | 87 | 1007.5 |
| 20260505171731 | 80 | 155 | 10.0 | 16.0 | 0.00 | 0.00 | 0.00 | 87 | 1007.5 |
| 20260505171231 | 80 | 138 | 9.0 | 16.0 | 0.00 | 0.00 | 0.00 | 87 | 1007.7 |
| 20260505170713 | 80 | 147 | 8.0 | 12.0 | 0.00 | 0.00 | 0.00 | 88 | 1007.7 |
| 20260505170429 | 80 | 153 | 9.0 | 15.0 | 0.00 | 0.00 | 0.00 | 88 | 1007.7 |
| 20260505165657 | 80 | 153 | 11.0 | 20.0 | 0.00 | 0.00 | 0.00 | 88 | 1007.8 |
| 20260505165401 | 80 | 163 | 12.0 | 20.0 | 0.00 | 0.00 | 0.00 | 88 | 1007.8 |
| 20260505164638 | 80 | 209 | 11.0 | 18.0 | 0.00 | 0.00 | 0.00 | 88 | 1007.8 |
| 20260505164128 | 80 | 182 | 10.0 | 18.0 | 0.00 | 0.00 | 0.00 | 88 | 1007.8 |
| 20260505163628 | 80 | 165 | 10.0 | 21.0 | 0.00 | 0.00 | 0.00 | 88 | 1007.7 |
| 20260505163326 | 80 | 199 | 9.0 | 21.0 | 0.00 | 0.00 | 0.00 | 88 | 1007.7 |
| 20260505162553 | 80 | 155 | 8.0 | 12.0 | 0.00 | 0.00 | 0.00 | 90 | 1007.7 |
| 20260505162025 | 80 | 190 | 7.0 | 13.0 | 0.00 | 0.00 | 0.00 | 91 | 1007.7 |
| 20260505161731 | 79 | 183 | 7.0 | 13.0 | 0.00 | 0.00 | 0.00 | 92 | 1007.6 |
| 20260505160933 | 78 | 164 | 8.0 | 12.0 | 0.00 | 0.00 | 0.00 | 92 | 1007.7 |
| 20260505160415 | 78 | 165 | 9.0 | 9.0 | 0.00 | 0.00 | 0.00 | 92 | 1007.8 |
| 20260505153227 | 78 | 129 | 8.0 | 17.0 | 0.00 | 0.00 | 0.00 | 92 | 1007.5 |
| 20260505152700 | 78 | 184 | 8.0 | 14.0 | 0.00 | 0.00 | 0.00 | 92 | 1007.5 |
| 20260505152415 | 78 | 167 | 7.0 | 14.0 | 0.00 | 0.00 | 0.00 | 92 | 1007.4 |
| 20260505151648 | 78 | 152 | 8.0 | 13.0 | 0.00 | 0.00 | 0.00 | 93 | 1007.5 |
| 20260505151146 | 78 | 184 | 8.0 | 13.0 | 0.00 | 0.00 | 0.00 | 93 | 1007.6 |
| 20260505150633 | 78 | 179 | 8.0 | 14.0 | 0.00 | 0.00 | 0.00 | 93 | 1007.6 |
| 20260505150113 | 78 | 157 | 8.0 | 14.0 | 0.00 | 0.00 | 0.00 | 93 | 1007.4 |
| 20260505140315 | 76 | 209 | 7.0 | 12.0 | 0.00 | 0.00 | 0.00 | 96 | 1007.4 |
| 20260505130155 | 75 | 181 | 5.0 | 9.0 | 0.00 | 0.00 | 0.00 | 96 | 1007.3 |
| 20260505124615 | 75 | 174 | 6.0 | 10.0 | 0.00 | 0.00 | 0.00 | 96 | 1007.1 |
| 20260505124332 | 75 | 157 | 5.0 | 8.0 | 0.00 | 0.00 | 0.00 | 96 | 1007.0 |
| 20260505123557 | 75 | 184 | 5.0 | 9.0 | 0.00 | 0.00 | 0.00 | 96 | 1007.0 |
| 20260505123037 | 74 | 169 | 4.0 | 9.0 | 0.00 | 0.00 | 0.00 | 96 | 1007.0 |
| 20260505122538 | 74 | 159 | 5.0 | 9.0 | 0.00 | 0.00 | 0.00 | 96 | 1006.9 |
| 20260505122036 | 74 | 161 | 5.0 | 9.0 | 0.00 | 0.00 | 0.00 | 96 | 1006.8 |
| 20260505121536 | 74 | 148 | 5.0 | 11.0 | 0.00 | 0.00 | 0.00 | 97 | 1006.6 |
| 20260505121245 | 74 | 147 | 6.0 | 11.0 | 0.00 | 0.00 | 0.00 | 97 | 1006.7 |
| 20260505120007 | 74 | 147 | 5.0 | 9.0 | 0.00 | 0.00 | 0.00 | 97 | 1006.6 |
| 20260505115439 | 73 | 142 | 5.0 | 9.0 | 0.00 | 0.00 | 0.00 | 97 | 1006.7 |
| 20260505114915 | 73 | 165 | 5.0 | 9.0 | 0.00 | 0.00 | 0.00 | 97 | 1006.8 |
| 20260505114403 | 73 | 156 | 4.0 | 9.0 | 0.00 | 0.00 | 0.00 | 97 | 1006.7 |
| 20260505113858 | 73 | 153 | 4.0 | 8.0 | 0.00 | 0.00 | 0.00 | 97 | 1006.7 |